POKER ONLINE Indonesia Terpercaya | Agen Dewa Poker88 - Hoya Jackpot

Jackpot

Texas Poker Multi Jackpot System

Kini Telah hadir Jackpot SUPER ROYAL FLUSH

Kini Telah hadir Jackpot 2000 (khusus table VIP keatas).

Ikutilah global jackpot yang tersedia di system kami, dengan system jackpot terbaru dan pertama di indonesia, anda dapat membeli jackpot dengan harga 100 rupiah saja dan menangkan hadiahnya hingga puluhan juta rupiah.

Jackpot bukanlah suatu keharusan untuk dibeli, namun kami memberikan suatu fitur tambahan untuk member tercinta dari www.hoyajackpot88.com.

Terdapat tiga pilihan harga jackpot yang bisa anda beli yaitu :100,500,1000 dan 2000(khusus table VIP Keatas) rupiah.

Hadiah dari Multi jackpot system www.hoyajackpot88.com

  1. full house x 10 harga jackpot yang anda beli.
      (contoh:anda membeli 1000 maka:1000 X10 = 10.000)
  2. four of kind x 250 harga jackpot yang anda beli
      (contoh:anda membeli 1000 maka:1000 X250 = 250.000)
  3. Straight flush x 1200
      (contoh:anda membeli 1000 maka:1000 X1200 = 1.200.000)
  4. Royal flush x 10000 harga jackpot yang anda beli
      (contoh:anda membeli 1000 maka:1000 X10000 = 10.000.000)
  5. SUPER ROYAL FLUSH x 30000 harga jackpot yang anda beli
      (contoh:anda membeli 1000 maka:1000 X30000 = 30.000.000)

Kondisi kartu

  1. full house adalah kondisi kartu dimana kartu anda dan kartu tengah dengan total 7 kartu bisa mendapatkan nilai 5 kartu dengan kombinasi 1 tris(three of kind) dan 1 pair, contoh 3 kartu 10 dan 2 kartu 5
  2. Four of kind adalah kondisi kartu dimana kartu anda dan kartu tengah dengan total 7 kartu bisa mendapatkan nilai 5 kartu dengan kombinasi 4 kartu yang sama jumlah dan 1 kartu apapun juga contoh anda mendapatkan 4 buah kartu angka 3 dan 1 kartu apapun.
  3. Staright flush adalah kondisi kartu dimana kartu anda dan kartu tengah dengan total 7 kartu bisa mendapatkan nilai 5 kartu dengan kombinasi seri / staright dengan kembang yang sama contoh : urutan kartu dari angka 5, 6, 7, 8 , 9 10 dengan kembang yg sama misalnya as hati
  4. Royal flush adalah kondisi kartu dimana kartu anda dan kartu tengah dengan total 7 kartu bisa mendapatkan nilai 5 kartu dengan kombinasi seri / staright dengan kembang yang sama tetapi kartu tersebut haruslah dimulai dari 10. contoh 10, Queen, Jack, King dan aces dengan kembang yang sama
  5. Super Royal flush adalah kondisi kartu dimana Kedua kartu anda digabung dengan 3 kartu pertama meja haruslah royal flush. contoh kartu anda 10,Queen kembang sama dan 3 kartu pertama meja adalah Jack, King dan aces dengan kembang yang sama

Demikian adalah penjelasan dari Multi Jackpot www.hoyajackpot88.com terima kasih dan selamat bermain salam hoki dari kami

Texas Poker Jackpot Winner

TOP SUPER ROYAL FLUSH
No.TanggalNamaPriceWin
118/12 03:22YANSPEACESuper Royal flush30,000,000
217/12 21:42ZANDYMANSuper Royal flush6,000,000
317/12 20:48NURSADI88Super Royal flush15,000,000
417/12 18:23LAI5Super Royal flush3,000,000
517/12 16:37SIBROT18Super Royal flush15,000,000
TOP ROYAL FLUSH
No.TanggalNamaPriceWin
118/12 04:30LAZARUS99Royal flush10,000,000
218/12 04:24NDUTGILARoyal flush2,000,000
318/12 04:21KROTONE93Royal flush5,000,000
418/12 04:11PUPUN_Royal flush1,000,000
518/12 03:55BI9_B05Royal flush10,000,000
TOP STRAIGHT FLUSH
No.TanggalNamaPriceWin
118/12 04:33P303_78Straight Flush600,000
218/12 04:32ABIGAIL83Straight Flush600,000
318/12 04:31TUAKAIStraight Flush240,000
418/12 04:30SHBNOVALStraight Flush120,000
518/12 04:29EQY6SM839DStraight Flush120,000
LATEST JACKPOT
No.TanggalNamaPriceWin
118/12 04:34H312YYYFull House2,000
218/12 04:34LORIGGIO17Full House20,000
318/12 04:34BAJIR888Four Of A Kind250,000
418/12 04:34WEDEW078Full House1,000
518/12 04:34ARJUV76Full House5,000
618/12 04:34AEA8E554Full House1,000
718/12 04:34YUHFull House5,000
818/12 04:34W2TFWOZ38XFull House2,000
918/12 04:34POKPOK66Full House2,000
1018/12 04:34AMT888Full House2,000
1118/12 04:34CPLAYER61Full House5,000
1218/12 04:34DEEWWAA19Four Of A Kind50,000
1318/12 04:34NAYA1105Full House10,000
1418/12 04:34MARENO99Full House5,000
1518/12 04:34BJKIPS22Full House5,000
1618/12 04:34AMPE5JTFour Of A Kind50,000
1718/12 04:34ZARWO89Full House20,000
1818/12 04:33DOBLOHFull House2,000
1918/12 04:33KIAMAT78Full House1,000
2018/12 04:33INDRANAFull House2,000
2118/12 04:33P303_78Straight Flush600,000
2218/12 04:33PURWADI88Full House1,000
2318/12 04:33KARLO9Full House500
2418/12 04:33IKIDOFull House500
2518/12 04:33BETEL10Full House5,000
2618/12 04:33DUNIA26Full House5,000
2718/12 04:33I42PHTJP2VFour Of A Kind25,000
2818/12 04:33TEMPIKKKFull House1,000
2918/12 04:33IDRA_12Full House1,000
3018/12 04:33ITILBEREUMFull House2,000
3118/12 04:33BRUNTUNG79Four Of A Kind50,000
3218/12 04:33KERASAKTI8Full House2,000
3318/12 04:33UBA01Four Of A Kind50,000
3418/12 04:33R412Full House10,000
3518/12 04:33PYTON99Full House10,000
3618/12 04:33EC35092BFull House10,000
3718/12 04:33PEKONG93Full House2,000
3818/12 04:33SIHOO86Full House5,000
3918/12 04:33HADANI99Full House1,000
4018/12 04:33M0DESTYFull House2,000
4118/12 04:33C47F2EFFFour Of A Kind50,000
4218/12 04:33AA03CEEDFull House2,000
4318/12 04:33LETS168Full House5,000
4418/12 04:33ROSA333Full House2,000
4518/12 04:33RUSAKJUDI9Full House10,000
4618/12 04:33POH78Full House5,000
4718/12 04:33GABLUK44Full House5,000
4818/12 04:33YEYE84Full House10,000
4918/12 04:33KIKIP81Full House10,000
5018/12 04:33CONGAP02Full House5,000

Domino Multi Jackpot System

Ikutilah global jackpot yang tersedia di system kami, dengan system jackpot terbaru dan pertama di indonesia, anda dapat membeli jackpot dengan harga 100 rupiah saja dan menangkan hadiahnya hingga puluhan juta rupiah.

Jackpot bukanlah suatu keharusan untuk dibeli, namun kami memberikan suatu fitur tambahan untuk member tercinta dari www.hoyajackpot88.com.

Terdapat tiga pilihan harga jackpot yang bisa anda beli yaitu :100,500 dan 1000 rupiah.

Hadiah dari Multi jackpot system www.hoyajackpot88.com

  1. Murni Kecil x 50 harga jackpot yang anda beli.
      (contoh:anda membeli 1000 maka:1000 X 50 = 50.000)
  2. Murni Besar x 50 harga jackpot yang anda beli
      (contoh:anda membeli 1000 maka:1000 X 50 = 50.000)
  3. BALAK x 100 harga jackpot yang anda beli
      (contoh:anda membeli 1000 maka:1000 X 100 = 100.000)
  4. ENAM DEWA x 6666 harga jackpot yang anda beli
      (contoh:anda membeli 1000 maka:1000 X 6666 = 6.666.000)

Demikian adalah penjelasan dari Multi Jackpot www.hoyajackpot88.com terima kasih dan selamat bermain salam hoki dari kami

Domino Jackpot Winner

TOP ENAM DEWA
No.TanggalNamaPriceWin
118/12 03:54TARDAH21murni enam666,600
218/12 00:10SKYN3T82murni enam3,333,000
317/12 23:19HTEATPR2BAmurni enam666,600
417/12 21:14ESHEKESHEKmurni enam3,333,000
517/12 21:04JOEBERmurni enam6,666,000
TOP BALAK
No.TanggalNamaPriceWin
118/12 04:33PODOK889balak100,000
218/12 04:32TIREX56balak50,000
318/12 04:28ANDREMLXbalak50,000
418/12 04:27ZOUYUNbalak100,000
518/12 04:27JACKPRbalak100,000
LATEST JACKPOT
No.TanggalNamaPriceWin
118/12 04:34PSC01murni besar25,000
218/12 04:33YESYUU69lucky992,500
318/12 04:33PODOK889balak100,000
418/12 04:32TIREX56balak50,000
518/12 04:31HOKYPROOOmurni besar25,000
618/12 04:31MBAMBENGmurni besar50,000
718/12 04:30KOKOROKO28murni kecil50,000
818/12 04:30OCOL08murni kecil5,000
918/12 04:28SCXP3LORmurni besar25,000
1018/12 04:28JERO697murni besar25,000
1118/12 04:280LAQ88murni kecil50,000
1218/12 04:28ANDREMLXbalak50,000
1318/12 04:27ZOUYUNbalak100,000
1418/12 04:27JACKPRbalak100,000
1518/12 04:27SXZ7balak100,000
1618/12 04:26AWANGAWANGmurni kecil50,000
1718/12 04:26SIFA_27murni besar50,000
1818/12 04:25ZOKER05454balak100,000
1918/12 04:25SIFA_27murni besar50,000
2018/12 04:25GOBER95balak50,000
2118/12 04:20LOTUS0308murni kecil50,000
2218/12 04:18JEPRET986murni besar25,000
2318/12 04:18SMTEK99murni besar25,000
2418/12 04:16SEKAYNETmurni kecil50,000
2518/12 04:15SCXP3LORbalak50,000
2618/12 04:12BIM4SAKTYmurni besar50,000
2718/12 04:12JEYE77murni kecil50,000
2818/12 04:11CAMPALLEmurni besar25,000
2918/12 04:09TENG_WEEmurni kecil5,000
3018/12 04:09TARDAH21murni kecil25,000
3118/12 04:06SUDUANG73murni besar25,000
3218/12 04:050LAQ88murni besar50,000
3318/12 04:05RASMIN1murni kecil50,000
3418/12 04:05ABDULLAHCCmurni besar50,000
3518/12 04:04JACE888murni kecil50,000
3618/12 04:04U64Nbalak100,000
3718/12 04:04SXZ7murni besar25,000
3818/12 04:02THOM420balak100,000
3918/12 04:02TCIPALIlucky9925,000
4018/12 04:02SUBH4N1990murni besar25,000
4118/12 04:01LUKEHlucky9910,000
4218/12 04:0199NIRWAN99murni besar50,000
4318/12 04:01OKI88YOmurni besar5,000
4418/12 04:00DONGBASmurni besar50,000
4518/12 04:00THONKZ28murni besar50,000
4618/12 03:59BORNEOCLUBmurni kecil50,000
4718/12 03:59ZOLAYmurni kecil25,000
4818/12 03:58ZOUYUNbalak100,000
4918/12 03:58KARELL001murni kecil5,000
5018/12 03:58SEKAYNETmurni besar50,000

Ceme Multi Jackpot System

Jackpot dilihat dari gabungan kartu pemain dengan kartu bandar. Bandar harus membeli jackpot sebanyak jumlah player yang sedang duduk. Sebagai contoh bila terdapat 3 pemain duduk bermain, dan bandar memutuskan untuk membeli jackpot Rp 1.000, maka pada periode tersebut bandar akan membeli jackpot sebanyak 3xRp1.000 = Rp3.000.

Jackpot bukanlah suatu keharusan untuk dibeli, namun kami memberikan suatu fitur tambahan untuk member tercinta dari www.hoyajackpot88.com.

Terdapat tiga pilihan harga jackpot yang bisa anda beli yaitu :100,500 dan 1000 rupiah.

Hadiah dari Multi jackpot system www.hoyajackpot88.com

  1. Murni Kecil x 50 harga jackpot yang anda beli.
      (contoh:anda membeli 1000 maka:1000 X 50 = 50.000)
  2. Murni Besar x 50 harga jackpot yang anda beli
      (contoh:anda membeli 1000 maka:1000 X 50 = 50.000)
  3. BALAK x 200 harga jackpot yang anda beli
      (contoh:anda membeli 1000 maka:1000 X 200 = 200.000)
  4. ENAM DEWA x 6666 harga jackpot yang anda beli
      (contoh:anda membeli 1000 maka:1000 X 6666 = 6.666.000)

Demikian adalah penjelasan dari Multi Jackpot www.hoyajackpot88.com terima kasih dan selamat bermain salam hoki dari kami

Ceme Jackpot Winner

TOP ENAM DEWA
No.TanggalNamaPriceWin
118/12 04:16YUNG2Xmurni enam666,600
218/12 02:39HENGKII136murni enam6,666,000
318/12 02:37DEXYImurni enam3,333,000
418/12 02:37LT4C5EUU6Wmurni enam3,333,000
518/12 02:33SUM4TRAmurni enam3,333,000
TOP BALAK
No.TanggalNamaPriceWin
118/12 04:33CASELEO46balak200,000
218/12 04:32BXG44G11BDbalak200,000
318/12 04:32MM378balak200,000
418/12 04:32NEWORDER07balak200,000
518/12 04:32YKB88303balak200,000
LATEST JACKPOT
No.TanggalNamaPriceWin
118/12 04:34COEZ22murni kecil50,000
218/12 04:34ADEAN1Nmurni kecil5,000
318/12 04:34STUFFGOODSmurni kecil5,000
418/12 04:34HNDRXQP9murni kecil50,000
518/12 04:33K4NGG0RIK0murni besar25,000
618/12 04:33CASELEO46balak200,000
718/12 04:33E75EFE9Emurni kecil50,000
818/12 04:32BXG44G11BDbalak200,000
918/12 04:32MM378balak200,000
1018/12 04:32NEWORDER07balak200,000
1118/12 04:32FAY69murni kecil50,000
1218/12 04:32GRONTOL_2murni kecil5,000
1318/12 04:3280904murni kecil50,000
1418/12 04:32YKB88303balak200,000
1518/12 04:32CUMI95murni besar50,000
1618/12 04:32ADE1JAmurni besar5,000
1718/12 04:32BALL222murni kecil50,000
1818/12 04:32DEWOK333murni kecil50,000
1918/12 04:32COEZ22murni besar50,000
2018/12 04:32YOGGY11murni besar25,000
2118/12 04:32COEZ22murni besar50,000
2218/12 04:32P4NTUNmurni kecil50,000
2318/12 04:31B1J1LU3murni besar25,000
2418/12 04:31BEHH1234balak20,000
2518/12 04:30JERRICK21murni kecil50,000
2618/12 04:30SASA5252murni kecil50,000
2718/12 04:29BXG44G11BDmurni besar50,000
2818/12 04:29SAMUDRA088murni besar25,000
2918/12 04:29WIDYXFLYmurni kecil5,000
3018/12 04:29NHLPDLIKSTmurni kecil50,000
3118/12 04:29MASARI99murni kecil25,000
3218/12 04:29DRIX7676balak20,000
3318/12 04:28ACHONG38murni kecil50,000
3418/12 04:28TIGAWANITAmurni besar50,000
3518/12 04:28PETRUKMEGAmurni besar50,000
3618/12 04:28ICHI89murni kecil5,000
3718/12 04:28DRENGDENGmurni kecil5,000
3818/12 04:28FIAN78murni besar50,000
3918/12 04:28URI303balak200,000
4018/12 04:28D4C6574Amurni kecil25,000
4118/12 04:28OCHID77murni kecil25,000
4218/12 04:28OZ99ZOmurni besar5,000
4318/12 04:27T4DKING21murni besar5,000
4418/12 04:27VASER90murni kecil50,000
4518/12 04:27EKKERmurni kecil5,000
4618/12 04:27VASER90murni kecil50,000
4718/12 04:27COEZ22murni kecil50,000
4818/12 04:27RJB21murni kecil50,000
4918/12 04:27MIA666murni kecil25,000
5018/12 04:26ZHEN2017murni kecil50,000